Regional Weather Roundup
Issued by NWS

Home | Current Version | Previous Version | Graphics & Text | Print | Product List | Glossary On
Versions: 1 2 3 4 5 6 7 8 9 10 11 12 13 14 15 16 17 18 19 20 21 22 23 24 25 26 27 28 29 30 31 32 33 34 35 36 37 38 39 40 41 42 43 44 45 46 47 48 49 50
000
ASUS43 KLMK 031702
RWRKY
KENTUCKY REGIONAL WEATHER ROUNDUP
NATIONAL WEATHER SERVICE LOUISVILLE KY
100 PM EDT WED JUN 03 2015

NOTE "FAIR" INDICATES FEW OR NO CLOUDS BELOW 12,000 FEET
WITH NO SIGNIFICANT WEATHER AND/OR OBSTRUCTIONS TO VISIBILITY.

KYZ001>023-026-027-061>063-070>075-031800-
WESTERN AND SOUTH CENTRAL KENTUCKY

CITY           SKY/WX    TMP DP  RH WIND       PRES   REMARKS
PADUCAH        MOSUNNY   74  58  57 E6        30.04S
HENDERSON      MOSUNNY   66  55  68 E5        30.05S
OWENSBORO      CLOUDY    65  56  72 E8        30.08R
HOPKINSVILLE   PTSUNNY   66  58  74 N6        30.04F
BOWLING GREEN  CLOUDY    67  55  65 E6        30.06S
GLASGOW        NOT AVBL
$$

KYZ024-025-028>034-038-045-046-053-031800-
NORTH CENTRAL KENTUCKY

CITY           SKY/WX    TMP DP  RH WIND       PRES   REMARKS
LOUISVILLE/SDF CLOUDY    67  56  67 E8        30.07R
LOUISVILLE/LOU CLOUDY    66  55  67 VRB7      30.08R
FORT KNOX      CLOUDY    63  56  77 NE3       30.06R
$$

KYZ035>037-039>044-047>052-055>060-089>105-031800-
NORTHEAST KENTUCKY

CITY           SKY/WX    TMP DP  RH WIND       PRES   REMARKS
LEXINGTON      CLOUDY    63  56  78 E7        30.07F
COVINGTON      CLOUDY    67  56  67 E5        30.07F
FRANKFORT      CLOUDY    64  55  72 E8        30.06F
$$

KYZ054-064>069-076>088-106>120-031800-
SOUTHEAST KENTUCKY

CITY           SKY/WX    TMP DP  RH WIND       PRES   REMARKS
JACKSON        CLOUDY    63  58  83 CALM      30.08S
LONDON         CLOUDY    65  55  70 CALM      30.07S
SOMERSET       NOT AVBL
MIDDLESBORO    PTSUNNY   74  61  65 CALM      30.05S
MONTICELLO     CLOUDY    68  62  80 E5        30.08F
$$



USA.gov is the U.S. government's official web portal to all federal, state and local government web resources and services.